Flag for Russia Weather past 2 weeks in Nizhny Novgorod, Russia

Now
32 °F

Partly sunny.


Feels Like: 25 °F
Forecast: 32 / 40 °F
Wind: 8 mph from South

Location: Nizhny Novgorod/Strigino

Current Time: Dec 19, 2014 at 12:36:52 PM

Latest Report: Dec 19, 2014 at 12:00 PM


Visibility: N/A

Pressure: 29.80 "Hg

Humidity: 87%

Dew point: 28 °F

Location of Nizhny NovgorodLocation

Historic Weather in Nizhny Novgorod — Graph

°F

Nizhny Novgorod temperature yesterday

Maximum temperature yesterday: 37 °F (at 11:00 AM)
Minimum temperature yesterday: 34 °F (at 12:30 AM)
Average temperature yesterday: 35 °F

Past Weeks' High & Low Weather Summary

 TemperatureHumidityPressure
High37 °F (Dec 14, 12:00 PM)100% (Dec 6, 1:30 AM)30.45 "Hg (Dec 6, 1:30 AM)
Low18 °F (Dec 8, 3:30 AM)64% (Dec 5, 8:00 AM)29.59 "Hg (Dec 18, 7:30 AM)
Average30 °F88%30.11 "Hg
* Reported Dec 4 11:00 AM — Dec 19 11:30 AM, Nizhny Novgorod, Weather by CustomWeather, © 2014

Note: Actual official high and low records may vary slightly from our data, if they occured in-between our weather recording intervals... More about our weather records

Advertising

Nizhny Novgorod weather history for previous 24 hours

 ConditionsComfort  
Time TempWeatherWind HumidityBarometerVisibility
11:30 AM
Dec 19
32 °FPartly sunny.6 mph87%29.80 "HgN/A
11:00 AM32 °FPartly sunny.6 mph87%29.80 "HgN/A
10:00 AM32 °FOvercast.6 mph93%29.83 "HgN/A
9:30 AM32 °FLow clouds.6 mph93%29.83 "HgN/A
9:00 AM32 °FLow clouds.6 mph93%29.83 "HgN/A
8:30 AM32 °FPassing clouds.3 mph93%29.83 "HgN/A
8:00 AM32 °FPassing clouds.3 mph87%29.83 "HgN/A
7:30 AM32 °FLight snow. Passing clouds.3 mph87%29.83 "HgN/A
6:30 AM32 °FLight snow. Passing clouds.3 mph87%29.83 "HgN/A
6:00 AM32 °FPassing clouds.6 mph87%29.83 "HgN/A
5:30 AM32 °FPassing clouds.3 mph87%29.83 "HgN/A
5:00 AM32 °FPassing clouds.3 mph87%29.83 "HgN/A
4:30 AM32 °FMostly cloudy.3 mph87%29.83 "HgN/A
4:00 AM32 °FMostly cloudy.6 mph87%29.83 "HgN/A
3:30 AM32 °FMostly cloudy.3 mph87%29.83 "HgN/A
3:00 AM34 °FMostly cloudy.3 mph81%29.83 "HgN/A
2:30 AM34 °FMostly cloudy.6 mph87%29.83 "HgN/A
2:00 AM34 °FMostly cloudy.6 mph87%29.83 "HgN/A
1:30 AM34 °FMostly cloudy.6 mph87%29.83 "HgN/A
1:00 AM34 °FMostly cloudy.6 mph87%29.83 "HgN/A
12:30 AM34 °FMostly cloudy.6 mph87%29.83 "HgN/A
12:00 AM34 °FMostly cloudy.3 mph87%29.83 "HgN/A
11:30 PM
Dec 18
34 °FMostly cloudy.6 mph87%29.83 "HgN/A
11:00 PM34 °FPassing clouds.6 mph87%29.83 "HgN/A
10:30 PM34 °FPassing clouds.8 mph87%29.83 "HgN/A
10:00 PM34 °FPassing clouds.6 mph87%29.83 "HgN/A
9:30 PM34 °FPassing clouds.6 mph87%29.83 "HgN/A
9:00 PM34 °FPassing clouds.6 mph87%29.83 "HgN/A
8:30 PM34 °FPartly cloudy.6 mph87%29.83 "HgN/A
8:00 PM34 °FPartly cloudy.3 mph87%29.83 "HgN/A
7:30 PM34 °FPassing clouds.3 mph87%29.83 "HgN/A
7:00 PM34 °FPassing clouds.6 mph81%29.83 "HgN/A
6:30 PM34 °FPassing clouds.6 mph81%29.83 "HgN/A
6:00 PM36 °FPassing clouds.6 mph75%29.83 "HgN/A
5:30 PM36 °FPassing clouds.6 mph81%29.83 "HgN/A
5:00 PM36 °FPassing clouds.3 mph81%29.80 "HgN/A
4:30 PM36 °FPassing clouds.3 mph75%29.80 "HgN/A
4:00 PM36 °FPartly sunny.6 mph75%29.80 "HgN/A
3:30 PM36 °FPartly sunny.6 mph75%29.80 "HgN/A
3:00 PM36 °FPartly sunny.6 mph81%29.77 "HgN/A
2:30 PM36 °FPartly sunny.6 mph81%29.77 "HgN/A
2:00 PM36 °FOvercast.6 mph81%29.77 "HgN/A
1:30 PM36 °FPartly sunny.8 mph87%29.74 "HgN/A
1:00 PM36 °FLight rain. Partly sunny.8 mph87%29.74 "HgN/A
12:30 PM37 °FPartly sunny.8 mph81%29.71 "HgN/A
12:00 PM37 °FPartly sunny.6 mph81%29.71 "HgN/A
Weather by CustomWeather, © 2014

See weather overviewHow to use our weather pages